Location: São Paulo
(23.5507°S, 46.6334°W)
Time: 09:58:56
(UTC-03:00)

Transit 4A - Pass Details

Date: 18 February 2026
Orbit: 864 x 977 km, 66.8° (Epoch: 11 March)

Event Time Altitude Azimuth Distance (km) Brightness Sun altitude
Rises 00:30:55 0° 187° (S) 3,507 11.5 -54.7°
Enters shadow 00:31:44 - 184° (S) 3,234 11.2 -54.7°
Reaches altitude 10° 00:33:55 10° 173° (S) 2,548 - -54.6°
Maximum altitude 00:38:39 25° 119° (ESE) 1,698 - -54.5°
Drops below altitude 10° 00:43:18 10° 65° (ENE) 2,503 - -54.4°
Sets 00:46:11 0° 52° (NE) 3,432 - -54.2°
